{"data":{"norad_id":39022,"intl_designator":"2012-070A","name":"YAMAL 402","alt_names":[],"object_type":"PAYLOAD","status":"ACTIVE","operator":null,"country":"CIS","launch_date":"2012-12-08","launch_site_code":"TYMSC","launch_vehicle":null,"mission":null,"orbit_class":"UNKNOWN","rcs_meters":39.8107,"size_class":null,"mass_kg":null,"dimensions":null,"purposes":["comms"],"wikipedia_slug":null,"has_3d_model":false,"image_url":null,"decayed_at":null,"tle_current":{"epoch":"2026-05-25T04:00:15.762240Z","epoch_age_seconds":53965,"freshness":"FRESH","line1":"1 39022U 12070A   26145.16684910  .00000084  00000+0  00000+0 0  9999","line2":"2 39022   1.2083  84.4285 0003897 335.6993 297.5907  1.00271541 49168","mean_motion":1.00271541,"eccentricity":0.0003897,"inclination_deg":1.2083,"raan_deg":84.4285,"arg_perigee_deg":335.6993,"mean_anomaly_deg":297.5907,"bstar":0,"rev_number":4916,"period_min":1436.1003986166,"perigee_km":35770.231740685,"apogee_km":35803.094986088,"semimajor_km":42164.800363387,"source":"CELESTRAK","updated_at":"2026-05-25T13:38:13.939912Z"}}}